Location: Detroit
(42.3310°N, 83.0460°W)
Time: 01:04:11
(UTC-04:00)

A-11 Canister half - Pass Details

Date: 09 February 2023
Orbit: 1526 x 1682 km, 47.3° (Epoch: 20 March)

Event Time Altitude Azimuth Distance (km) Brightness Sun altitude
Rises 05:36:52 0° 248° (WSW) 4,685 - -22.6°
Reaches altitude 10° 05:39:55 10° 249° (WSW) 3,695 - -22.0°
Exits shadow 05:43:53 30° 252° (WSW) 2,479 9.5 -21.3°
Maximum altitude 05:49:15 83° 338° (NNW) 1,540 8.9 -20.3°
Drops below altitude 10° 05:58:40 10° 68° (ENE) 3,724 12.0 -18.6°
Sets 06:01:45 0° 69° (ENE) 4,723 12.8 -18.0°
